User: anonymous   Login
Location: Branche des Alpilles
(43.6087°N, 4.6976°E)
Time: 14:14:42
(UTC+00:00)
Language:

Tiangong - Orbit

View from above orbital plane
View from above orbital plane
View from above satellite
View from above satellite

Ground track
Ground track

The orbit data is extracted from the following two-line orbital elements,

1 48274U 21035A   21292.18609699  .00081779  00000-0  92112-3 0  9990
2 48274  41.4709 246.8380 0002229 233.2085 141.5920 15.61534913 27099
Epoch (UTC): 19 October 2021 04:27:58
Eccentricity: 0.0002229
inclination: 41.4709°
perigee height: 382 km
apogee height: 385 km
right ascension of ascending node: 246.8380°
argument of perigee: 233.2085°
revolutions per day: 15.61534913
mean anomaly at epoch: 141.5920°
orbit number at epoch: 2709

The dashed part of the orbit path shows where the satellite is in the earth's shadow,  

DLR